EZY542 EGAE-EGGP

Flight info

Callsign EZY542
Flight time 0h 37m
Altitude 23000
Route BELZU L10 DUFFY L15 PEPOD Q38 SOSIM L28 PENIL
Aircraft A319/M-SDE2E3FGIJ1RWXYZ/LB1

Departure

Time 2026-05-04 12:15
Airport City of Derry Airport (EGAE)

Arrival

Time 2026-05-04 12:52
Airport Liverpool John Lennon Airport (EGGP)
Time Latitude Longitude Altitude Speed Heading
2026-05-04 11:35 55.04027 -7.15613 30 ft 0 kts 167°
2026-05-04 12:04 55.04031 -7.15615 30 ft 2 kts 168°
2026-05-04 12:04 55.04050 -7.15620 30 ft 3 kts 171°
2026-05-04 12:05 55.04069 -7.15625 30 ft 3 kts 178°
2026-05-04 12:05 55.04087 -7.15622 30 ft 3 kts 217°
2026-05-04 12:05 55.04094 -7.15610 30 ft 1 kts 259°
2026-05-04 12:05 55.04094 -7.15609 30 ft 0 kts 259°
2026-05-04 12:06 55.04094 -7.15608 30 ft 0 kts 259°
2026-05-04 12:06 55.04094 -7.15604 30 ft 0 kts 259°
2026-05-04 12:08 55.04094 -7.15605 30 ft 1 kts 259°
2026-05-04 12:08 55.04087 -7.15680 30 ft 7 kts 259°
2026-05-04 12:08 55.04080 -7.15743 31 ft 5 kts 259°
2026-05-04 12:09 55.04072 -7.15829 31 ft 9 kts 272°
2026-05-04 12:09 55.04135 -7.15891 31 ft 13 kts 347°
2026-05-04 12:09 55.04198 -7.15917 31 ft 0 kts 346°
2026-05-04 12:12 55.04199 -7.15917 31 ft 0 kts 346°
2026-05-04 12:12 55.04199 -7.15918 31 ft 0 kts 346°
2026-05-04 12:12 55.04201 -7.15918 31 ft 1 kts 346°
2026-05-04 12:12 55.04215 -7.15924 31 ft 6 kts 346°
2026-05-04 12:13 55.04297 -7.15941 31 ft 15 kts 25°
2026-05-04 12:14 55.04504 -7.14840 20 ft 6 kts 255°
2026-05-04 12:15 55.04477 -7.15005 21 ft 41 kts 253°
2026-05-04 12:15 55.04317 -7.15916 31 ft 113 kts 253°
2026-05-04 12:15 55.04035 -7.17540 176 ft 154 kts 253°
2026-05-04 12:15 55.03706 -7.19311 862 ft 153 kts 253°
2026-05-04 12:16 55.03384 -7.21082 1577 ft 159 kts 255°
2026-05-04 12:16 55.02766 -7.22822 2012 ft 188 kts 220°
2026-05-04 12:16 55.01419 -7.23417 2327 ft 222 kts 173°
2026-05-04 12:16 54.99986 -7.22103 2830 ft 252 kts 136°
2026-05-04 12:17 54.98886 -7.19618 3677 ft 265 kts 123°
2026-05-04 12:17 54.97959 -7.16792 4716 ft 271 kts 118°
2026-05-04 12:17 54.97082 -7.13859 5720 ft 276 kts 117°
2026-05-04 12:17 54.96183 -7.10865 6665 ft 282 kts 118°
2026-05-04 12:18 54.95240 -7.07832 7558 ft 287 kts 119°
2026-05-04 12:18 54.94254 -7.04780 8458 ft 292 kts 120°
2026-05-04 12:18 54.93231 -7.01695 9369 ft 296 kts 121°
2026-05-04 12:18 54.92184 -6.98581 10253 ft 301 kts 121°
2026-05-04 12:19 54.91098 -6.95377 10630 ft 323 kts 121°
2026-05-04 12:19 54.89921 -6.91932 11160 ft 337 kts 121°
2026-05-04 12:19 54.88712 -6.88398 11911 ft 343 kts 121°
2026-05-04 12:19 54.87487 -6.84817 12698 ft 348 kts 120°
2026-05-04 12:20 54.86245 -6.81186 13518 ft 352 kts 120°
2026-05-04 12:20 54.84992 -6.77520 14269 ft 355 kts 120°
2026-05-04 12:20 54.83724 -6.73809 14969 ft 359 kts 120°
2026-05-04 12:20 54.82444 -6.70076 15676 ft 362 kts 120°
2026-05-04 12:21 54.81152 -6.66321 16396 ft 364 kts 120°
2026-05-04 12:21 54.79844 -6.62535 17095 ft 367 kts 120°
2026-05-04 12:21 54.78527 -6.58723 17769 ft 371 kts 120°
2026-05-04 12:21 54.77194 -6.54870 18447 ft 374 kts 120°
2026-05-04 12:22 54.75849 -6.50982 19031 ft 378 kts 120°
2026-05-04 12:22 54.74496 -6.47070 19641 ft 381 kts 120°
2026-05-04 12:22 54.73132 -6.43129 20238 ft 384 kts 120°
2026-05-04 12:22 54.71750 -6.39149 20849 ft 386 kts 120°
2026-05-04 12:23 54.70360 -6.35155 21453 ft 389 kts 119°
2026-05-04 12:23 54.68956 -6.31134 22064 ft 391 kts 120°
2026-05-04 12:23 54.67542 -6.27096 22661 ft 394 kts 120°
2026-05-04 12:23 54.66116 -6.23036 23033 ft 396 kts 120°
2026-05-04 12:24 54.64650 -6.19044 23107 ft 387 kts 121°
2026-05-04 12:24 54.63175 -6.15262 23111 ft 373 kts 123°
2026-05-04 12:24 54.61703 -6.11609 23112 ft 369 kts 123°
2026-05-04 12:24 54.60232 -6.07987 23111 ft 368 kts 123°
2026-05-04 12:25 54.58768 -6.04372 23111 ft 367 kts 123°
2026-05-04 12:25 54.57316 -6.00761 23111 ft 366 kts 122°
2026-05-04 12:25 54.55870 -5.97148 23111 ft 366 kts 122°
2026-05-04 12:25 54.54428 -5.93535 23111 ft 366 kts 122°
2026-05-04 12:26 54.52988 -5.89917 23111 ft 366 kts 122°
2026-05-04 12:26 54.51424 -5.86528 23112 ft 368 kts 132°
2026-05-04 12:26 54.49480 -5.83657 23112 ft 370 kts 143°
2026-05-04 12:26 54.47364 -5.81125 23112 ft 370 kts 143°
2026-05-04 12:27 54.45251 -5.78596 23111 ft 370 kts 143°
2026-05-04 12:27 54.43136 -5.76062 23111 ft 371 kts 143°
2026-05-04 12:27 54.41022 -5.73525 23111 ft 371 kts 143°
2026-05-04 12:27 54.38909 -5.70990 23111 ft 371 kts 143°
2026-05-04 12:28 54.36797 -5.68459 23111 ft 371 kts 143°
2026-05-04 12:28 54.34682 -5.65932 23122 ft 370 kts 143°
2026-05-04 12:28 54.32565 -5.63410 23125 ft 370 kts 143°
2026-05-04 12:28 54.30451 -5.60894 23118 ft 370 kts 143°
2026-05-04 12:29 54.28352 -5.58348 23111 ft 369 kts 139°
2026-05-04 12:29 54.26505 -5.55337 23117 ft 366 kts 128°
2026-05-04 12:29 54.24980 -5.51879 23114 ft 364 kts 123°
2026-05-04 12:29 54.23503 -5.48362 23112 ft 364 kts 123°
2026-05-04 12:30 54.22023 -5.44848 23116 ft 364 kts 123°
2026-05-04 12:30 54.20542 -5.41338 23116 ft 364 kts 123°
2026-05-04 12:30 54.19060 -5.37831 23115 ft 364 kts 123°
2026-05-04 12:30 54.17573 -5.34327 23114 ft 364 kts 123°
2026-05-04 12:31 54.16087 -5.30832 23119 ft 364 kts 123°
2026-05-04 12:31 54.14598 -5.27336 23120 ft 364 kts 124°
2026-05-04 12:31 54.13108 -5.23841 23124 ft 364 kts 123°
2026-05-04 12:31 54.11618 -5.20352 23127 ft 364 kts 123°
2026-05-04 12:32 54.10130 -5.16870 23124 ft 363 kts 123°
2026-05-04 12:32 54.07161 -5.09919 23122 ft 362 kts 123°
2026-05-04 12:32 54.05679 -5.06446 23120 ft 362 kts 123°
2026-05-04 12:33 54.04196 -5.02986 23116 ft 362 kts 123°
2026-05-04 12:33 54.02708 -4.99529 23120 ft 362 kts 124°
2026-05-04 12:33 54.01219 -4.96084 23119 ft 362 kts 124°
2026-05-04 12:33 53.99727 -4.92640 23118 ft 362 kts 124°
2026-05-04 12:34 53.98236 -4.89192 23113 ft 362 kts 124°
2026-05-04 12:34 53.96748 -4.85749 23112 ft 362 kts 124°
2026-05-04 12:34 53.95260 -4.82311 23095 ft 362 kts 124°
2026-05-04 12:34 53.93770 -4.78871 23094 ft 361 kts 124°
2026-05-04 12:35 53.92284 -4.75446 22955 ft 358 kts 124°
2026-05-04 12:35 53.90817 -4.72078 22689 ft 352 kts 124°
2026-05-04 12:35 53.89369 -4.68756 22423 ft 348 kts 124°
2026-05-04 12:35 53.87937 -4.65464 22152 ft 346 kts 124°
2026-05-04 12:36 53.86512 -4.62196 21893 ft 344 kts 124°
2026-05-04 12:36 53.85089 -4.58944 21628 ft 343 kts 124°
2026-05-04 12:36 53.84149 -4.56797 21457 ft 342 kts 125°
2026-05-04 12:36 53.82737 -4.53579 21194 ft 338 kts 125°
2026-05-04 12:37 53.81471 -4.50273 20813 ft 333 kts 115°
2026-05-04 12:37 53.80576 -4.46683 20414 ft 330 kts 109°
2026-05-04 12:37 53.79749 -4.43080 20023 ft 328 kts 110°
2026-05-04 12:37 53.78916 -4.39499 19621 ft 327 kts 111°
2026-05-04 12:38 53.77940 -4.35971 18991 ft 334 kts 116°
2026-05-04 12:38 53.76878 -4.32476 18572 ft 334 kts 117°
2026-05-04 12:38 53.75787 -4.29017 18155 ft 333 kts 117°
2026-05-04 12:38 53.74688 -4.25582 17749 ft 331 kts 118°
2026-05-04 12:39 53.73597 -4.22176 17358 ft 329 kts 118°
2026-05-04 12:39 53.72518 -4.18791 16979 ft 326 kts 117°
2026-05-04 12:39 53.71449 -4.15426 16603 ft 324 kts 118°
2026-05-04 12:39 53.70389 -4.12077 16217 ft 323 kts 118°
2026-05-04 12:40 53.69335 -4.08736 15858 ft 322 kts 118°
2026-05-04 12:40 53.68288 -4.05413 15489 ft 320 kts 118°
2026-05-04 12:40 53.67123 -4.02286 15144 ft 318 kts 128°
2026-05-04 12:40 53.65739 -3.99394 14826 ft 316 kts 129°
2026-05-04 12:41 53.64346 -3.96555 14509 ft 313 kts 129°
2026-05-04 12:41 53.62961 -3.93738 14196 ft 311 kts 129°
2026-05-04 12:41 53.61586 -3.90939 13883 ft 310 kts 129°
2026-05-04 12:41 53.60217 -3.88151 13544 ft 308 kts 130°
2026-05-04 12:42 53.58855 -3.85376 13194 ft 307 kts 130°
2026-05-04 12:42 53.57498 -3.82617 12848 ft 305 kts 129°
2026-05-04 12:42 53.56147 -3.79876 12508 ft 304 kts 130°
2026-05-04 12:42 53.54803 -3.77148 12173 ft 302 kts 130°
2026-05-04 12:43 53.53464 -3.74437 11836 ft 300 kts 130°
2026-05-04 12:43 53.52133 -3.71741 11508 ft 299 kts 130°
2026-05-04 12:43 53.50810 -3.69061 11175 ft 298 kts 130°
2026-05-04 12:43 53.49491 -3.66391 10861 ft 296 kts 130°
2026-05-04 12:44 53.48177 -3.63733 10534 ft 295 kts 130°
2026-05-04 12:44 53.46873 -3.61099 10220 ft 292 kts 130°
2026-05-04 12:44 53.45580 -3.58497 9899 ft 289 kts 130°
2026-05-04 12:44 53.44408 -3.55786 9551 ft 286 kts 121°
2026-05-04 12:45 53.43393 -3.52935 9217 ft 283 kts 120°
2026-05-04 12:45 53.42408 -3.50111 8901 ft 279 kts 120°
2026-05-04 12:45 53.41434 -3.47317 8509 ft 276 kts 120°
2026-05-04 12:45 53.40479 -3.44594 8124 ft 266 kts 120°
2026-05-04 12:46 53.39554 -3.41967 7740 ft 257 kts 120°
2026-05-04 12:46 53.38656 -3.39433 7365 ft 249 kts 120°
2026-05-04 12:46 53.37787 -3.36981 6994 ft 241 kts 120°
2026-05-04 12:46 53.36939 -3.34601 6626 ft 236 kts 120°
2026-05-04 12:47 53.36098 -3.32239 6251 ft 237 kts 120°
2026-05-04 12:47 53.35253 -3.29870 5847 ft 237 kts 120°
2026-05-04 12:47 53.34398 -3.27504 5460 ft 236 kts 120°
2026-05-04 12:47 53.33556 -3.25181 5086 ft 232 kts 120°
2026-05-04 12:48 53.32716 -3.22907 4679 ft 228 kts 120°
2026-05-04 12:48 53.31969 -3.20565 4168 ft 228 kts 106°
2026-05-04 12:48 53.31787 -3.17995 3836 ft 220 kts 86°
2026-05-04 12:48 53.31909 -3.15488 3538 ft 213 kts 85°
2026-05-04 12:49 53.32030 -3.13067 3256 ft 205 kts 86°
2026-05-04 12:49 53.32144 -3.10726 2976 ft 199 kts 85°
2026-05-04 12:49 53.32254 -3.08463 2711 ft 192 kts 85°
2026-05-04 12:49 53.32359 -3.06282 2489 ft 183 kts 85°
2026-05-04 12:50 53.32457 -3.04230 2207 ft 171 kts 85°
2026-05-04 12:50 53.32548 -3.02318 1971 ft 159 kts 85°
2026-05-04 12:50 53.32633 -3.00536 1766 ft 150 kts 84°
2026-05-04 12:50 53.32714 -2.98833 1586 ft 144 kts 84°
2026-05-04 12:51 53.32792 -2.97192 1394 ft 148 kts 84°
2026-05-04 12:51 53.32876 -2.95409 1180 ft 161 kts 84°
2026-05-04 12:51 53.32967 -2.93485 938 ft 169 kts 84°
2026-05-04 12:51 53.33060 -2.91496 694 ft 175 kts 84°
2026-05-04 12:52 53.33155 -2.89472 460 ft 174 kts 84°
2026-05-04 12:52 53.33254 -2.87448 214 ft 175 kts 84°
2026-05-04 12:52 53.33341 -2.85480 95 ft 155 kts 86°
2026-05-04 12:52 53.33395 -2.84304 73 ft 46 kts 86°
2026-05-04 12:53 53.33414 -2.83857 81 ft 20 kts 85°
2026-05-04 12:53 53.33426 -2.83663 72 ft 12 kts 79°
2026-05-04 12:53 53.33493 -2.83625 78 ft 12 kts 353°
2026-05-04 12:53 53.33553 -2.83635 82 ft 8 kts 353°
2026-05-04 12:54 53.33586 -2.83710 83 ft 11 kts 277°
2026-05-04 12:54 53.33580 -2.83861 77 ft 16 kts 266°
2026-05-04 12:54 53.33574 -2.84022 77 ft 14 kts 266°
2026-05-04 12:54 53.33566 -2.84211 73 ft 16 kts 265°
2026-05-04 12:55 53.33554 -2.84437 73 ft 22 kts 265°
2026-05-04 12:55 53.33543 -2.84675 80 ft 12 kts 266°
2026-05-04 12:55 53.33538 -2.84796 86 ft 11 kts 266°
2026-05-04 12:55 53.33530 -2.84950 85 ft 16 kts 265°
2026-05-04 12:56 53.33526 -2.85044 85 ft 9 kts 266°
2026-05-04 12:56 53.33521 -2.85160 85 ft 10 kts 265°
2026-05-04 12:56 53.33515 -2.85274 84 ft 6 kts 266°
2026-05-04 12:56 53.33512 -2.85344 84 ft 7 kts 265°
2026-05-04 12:57 53.33508 -2.85426 86 ft 7 kts 265°
2026-05-04 12:57 53.33507 -2.85443 84 ft 3 kts 266°
2026-05-04 12:57 53.33527 -2.85488 86 ft 8 kts 324°
2026-05-04 12:57 53.33586 -2.85507 85 ft 9 kts 359°
2026-05-04 12:58 53.33648 -2.85510 85 ft 5 kts 357°
2026-05-04 12:58 53.33664 -2.85513 87 ft 2 kts 353°
2026-05-04 12:58 53.33666 -2.85513 87 ft 0 kts 354°